FW8389 Weather Reports


time (UTC)temp
C
wind
direction
speed
KPH
gust
KPH
rain 1hr
cm
rain 24hr
cm
rain mn
cm
humidity
%
barometer
mb
20260510164503 8 271 22.5 43.5 0.00 0.61 0.00 56 1012.7
20260510163624 7 264 20.9 37.0 0.00 0.61 0.00 59 1012.6
20260510162703 7 266 20.9 41.8 0.00 0.61 0.00 57 1012.6
20260510161824 8 260 19.3 37.0 0.00 0.61 0.00 58 1012.6
20260510160903 7 261 20.9 37.0 0.00 0.61 0.00 61 1012.6
20260510160003 7 270 20.9 37.0 0.00 0.61 0.00 59 1012.5
20260510155403 7 268 19.3 38.6 0.00 0.61 0.00 60 1012.5
20260510154503 7 289 20.9 40.2 0.00 0.61 0.00 60 1012.5
20260510153603 7 268 24.1 43.5 0.00 0.61 0.00 61 1012.4
20260510152703 7 270 22.5 40.2 0.00 0.61 0.00 60 1012.2
20260510151803 7 269 22.5 35.4 0.00 0.61 0.00 60 1012.1
20260510150924 7 290 19.3 33.8 0.00 0.61 0.00 61 1012.0
20260510150003 7 286 20.9 40.2 0.00 0.61 0.00 61 1011.8
20260510145403 7 300 17.7 33.8 0.00 0.61 0.00 61 1011.7
20260510144503 7 290 19.3 35.4 0.00 0.61 0.00 59 1011.5
20260510143603 7 292 16.1 30.6 0.00 0.61 0.00 62 1011.4
20260510142724 6 272 20.9 37.0 0.00 0.61 0.00 61 1011.4
20260510141803 6 284 16.1 32.2 0.00 0.61 0.00 61 1011.1
20260510140924 6 279 19.3 33.8 0.00 0.61 0.00 63 1011.0
20260510140003 6 301 16.1 29.0 0.00 0.61 0.00 64 1011.0
20260510135403 6 303 16.1 27.4 0.00 0.61 0.00 61 1010.8
20260510134503 6 281 17.7 27.4 0.00 0.61 0.00 68 1010.7
20260510133603 6 298 14.5 27.4 0.00 0.61 0.00 69 1010.6
20260510132703 5 285 19.3 30.6 0.00 0.61 0.00 71 1010.6
20260510131803 6 308 14.5 29.0 0.00 0.61 0.00 71 1010.4
20260510130903 5 307 14.5 27.4 0.00 0.61 0.00 74 1010.4
20260510130003 5 279 17.7 30.6 0.00 0.61 0.00 76 1010.3
20260510125403 5 287 16.1 30.6 0.00 0.61 0.00 76 1010.2
20260510124503 4 285 17.7 33.8 0.00 0.61 0.00 78 1010.2
20260510123603 4 286 14.5 25.7 0.00 0.61 0.00 79 1010.1
20260510122724 3 289 14.5 25.7 0.00 0.61 0.00 80 1010.0
20260510121803 3 283 14.5 27.4 0.00 0.61 0.00 81 1009.9
20260510120903 3 283 17.7 27.4 0.00 0.61 0.00 81 1009.7
20260510120003 3 280 17.7 33.8 0.00 0.61 0.00 82 1009.7
20260510115403 2 269 19.3 29.0 0.00 0.61 0.00 82 1009.6
20260510114503 2 265 16.1 27.4 0.00 0.61 0.00 82 1009.5
20260510113603 2 267 17.7 30.6 0.00 0.61 0.00 83 1009.2
20260510112703 2 267 16.1 25.7 0.00 0.61 0.00 83 1009.1
20260510111803 2 266 14.5 22.5 0.00 0.61 0.00 84 1008.9
20260510110903 2 265 14.5 24.1 0.00 0.61 0.00 84 1008.8
20260510110003 1 262 14.5 24.1 0.00 0.61 0.00 85 1008.5
20260510105403 1 264 14.5 24.1 0.00 0.61 0.00 85 1008.4
20260510104503 1 264 16.1 29.0 0.00 0.61 0.00 86 1008.3
20260510103603 1 267 14.5 24.1 0.00 0.61 0.00 86 1008.1
20260510102703 1 270 14.5 20.9 0.00 0.61 0.00 86 1008.1
20260510101803 1 269 14.5 22.5 0.00 0.61 0.00 85 1007.9
20260510100903 1 260 12.9 22.5 0.00 0.61 0.00 85 1007.6
20260510100003 1 262 12.9 22.5 0.00 0.61 0.00 84 1007.5
20260510095403 1 260 12.9 20.9 0.00 0.61 0.00 84 1007.4
20260510094503 1 254 11.3 19.3 0.00 0.61 0.00 83 1007.3
20260510093603 1 251 9.7 22.5 0.00 0.61 0.00 83 1007.2
20260510092703 1 247 8.0 19.3 0.00 0.61 0.00 83 1007.1
20260510091803 1 249 8.0 19.3 0.00 0.61 0.00 83 1007.0
20260510090903 1 250 9.7 16.1 0.00 0.61 0.00 82 1006.8
20260510090003 2 250 9.7 17.7 0.00 0.61 0.00 82 1006.7
20260510085403 2 253 11.3 30.6 0.00 0.61 0.00 82 1006.8
20260510084524 2 256 14.5 30.6 0.00 0.61 0.00 82 1006.5
20260510083624 2 254 12.9 24.1 0.00 0.61 0.00 81 1006.6
20260510082703 2 254 11.3 22.5 0.00 0.61 0.00 81 1006.4
20260510081803 2 250 8.0 16.1 0.00 0.61 0.00 81 1006.3
20260510080903 2 251 9.7 17.7 0.00 0.61 0.00 81 1006.2
20260510080003 2 252 6.4 14.5 0.00 0.61 0.00 81 1006.2
20260510075403 2 252 6.4 14.5 0.00 0.61 0.00 81 1006.1
20260510074503 2 250 6.4 14.5 0.00 0.61 0.00 80 1006.1
20260510073603 2 257 6.4 19.3 0.00 0.61 0.00 80 1005.9
20260510072703 2 257 6.4 11.3 0.00 0.61 0.00 79 1005.8
20260510071803 2 257 8.0 14.5 0.00 0.61 0.00 79 1005.8
20260510070903 2 255 6.4 12.9 0.00 0.61 0.00 79 1005.7
20260510070003 2 259 6.4 14.5 0.00 0.61 0.00 79 1005.6
20260510065403 2 258 8.0 19.3 0.00 0.61 0.00 78 1005.7
20260510064503 2 258 9.7 19.3 0.00 0.61 0.00 78 1005.6
20260510063603 2 260 11.3 20.9 0.00 0.61 0.00 78 1005.6
20260510062724 3 266 12.9 22.5 0.00 0.61 0.00 77 1005.5
20260510061803 3 266 12.9 24.1 0.00 0.61 0.00 77 1005.6
20260510060903 3 265 12.9 22.5 0.00 0.61 0.00 77 1005.5
20260510060003 3 271 14.5 24.1 0.00 0.61 0.00 77 1005.5
20260510055403 3 277 12.9 27.4 0.00 0.61 0.00 77 1005.4
20260510054503 3 277 14.5 24.1 0.00 0.61 0.00 78 1005.4
20260510053603 3 273 19.3 32.2 0.00 0.61 0.00 77 1005.4
20260510052703 3 268 17.7 32.2 0.00 0.61 0.00 78 1005.4
20260510051803 3 271 14.5 24.1 0.00 0.61 0.00 77 1005.3
20260510050903 3 268 17.7 25.7 0.00 0.61 0.00 77 1005.2
20260510050003 4 261 14.5 24.1 0.00 0.61 0.00 77 1005.0
20260510045403 4 260 12.9 25.7 0.00 0.61 0.00 76 1004.9
20260510044503 4 260 14.5 25.7 0.00 0.61 0.00 75 1004.8
20260510043603 4 266 14.5 25.7 0.00 0.61 0.00 74 1004.7
20260510042703 4 262 12.9 22.5 0.00 0.61 0.00 74 1004.6
20260510041804 5 257 8.0 20.9 0.00 0.61 0.00 74 1004.2
20260510040903 5 248 6.4 19.3 0.00 0.61 0.00 73 1004.1
20260510040003 5 252 6.4 11.3 0.00 0.61 0.00 73 1004.0
20260510035424 5 268 9.7 20.9 0.00 0.61 0.61 72 1004.0
20260510034503 5 265 11.3 22.5 0.00 0.61 0.61 71 1003.7
20260510033603 5 258 6.4 16.1 0.00 0.61 0.61 71 1003.6
20260510032703 5 258 4.8 12.9 0.00 0.61 0.61 70 1003.5
20260510031803 6 259 6.4 12.9 0.00 0.61 0.61 69 1003.7
20260510030903 6 261 6.4 14.5 0.00 0.61 0.61 69 1003.6
20260510030024 6 259 4.8 11.3 0.00 0.61 0.61 69 1003.5
20260510025424 6 259 4.8 11.3 0.00 0.61 0.61 68 1003.4
20260510024503 6 259 6.4 16.1 0.00 0.61 0.61 69 1003.4
20260510023603 6 261 8.0 16.1 0.00 0.61 0.61 68 1003.3
20260510022703 6 266 11.3 19.3 0.00 0.61 0.61 67 1003.3
20260510021803 7 275 12.9 20.9 0.00 0.61 0.61 67 1003.2
20260510020903 7 283 11.3 20.9 0.00 0.61 0.61 68 1003.0
20260510020003 7 276 11.3 17.7 0.00 0.61 0.61 69 1002.8
20260510015403 7 276 11.3 17.7 0.00 0.61 0.61 70 1002.7
20260510014503 7 285 8.0 17.7 0.00 0.61 0.61 70 1002.4
20260510013603 7 282 11.3 22.5 0.00 0.61 0.61 69 1002.3
20260510012724 7 288 12.9 27.4 0.00 0.61 0.61 69 1002.3
20260510011803 7 301 8.0 17.7 0.00 0.61 0.61 69 1002.1
20260510010903 8 299 11.3 24.1 0.00 0.61 0.61 67 1001.8
20260510010024 8 288 11.3 24.1 0.00 0.61 0.61 67 1001.7
20260510005403 8 301 8.0 19.3 0.00 0.61 0.61 68 1001.5
20260510004503 8 303 8.0 14.5 0.00 0.61 0.61 69 1001.4
20260510003624 8 320 11.3 24.1 0.00 0.61 0.61 68 1001.2
20260510002724 8 302 9.7 17.7 0.00 0.61 0.61 70 1001.1
20260510001803 8 304 12.9 29.0 0.00 0.61 0.61 71 1001.2
20260510000924 8 287 12.9 24.1 0.00 0.61 0.61 73 1001.0
20260510000003 9 284 16.1 32.2 0.00 0.61 0.61 72 1000.8
20260509235403 9 285 14.5 30.6 0.00 0.61 0.61 73 1000.7
20260509234524 10 291 17.7 30.6 0.00 0.61 0.61 72 1000.4
20260509233603 10 297 16.1 33.8 0.00 0.61 0.61 72 1000.4
20260509232703 10 311 17.7 32.2 0.00 0.61 0.61 72 1000.1
20260509231824 11 309 17.7 33.8 0.00 0.61 0.61 71 999.7
20260509230903 11 285 19.3 38.6 0.00 0.61 0.61 73 999.2
20260509230003 12 269 20.9 40.2 0.00 0.61 0.61 75 998.9
20260509225403 11 260 16.1 33.8 0.00 0.61 0.61 79 998.7
20260509224503 11 243 9.7 19.3 0.00 0.61 0.61 82 998.6
20260509223603 11 230 8.0 17.7 0.00 0.61 0.61 85 998.4
20260509222703 11 218 9.7 16.1 0.00 0.61 0.61 85 998.3
20260509221803 11 208 11.3 19.3 0.00 0.61 0.61 86 998.3
20260509220903 11 206 11.3 19.3 0.00 0.61 0.61 86 998.4
20260509220003 11 210 11.3 19.3 0.00 0.61 0.61 87 998.4
20260509215403 10 204 14.5 20.9 0.00 0.61 0.61 87 998.4
20260509214503 10 196 14.5 29.0 0.00 0.61 0.61 88 998.4
20260509213624 10 192 16.1 24.1 0.03 0.61 0.61 87 998.3
20260509212703 10 182 14.5 27.4 0.08 0.61 0.61 86 998.2
20260509211803 10 184 16.1 27.4 0.30 0.61 0.61 87 998.3
20260509210903 10 189 17.7 27.4 0.38 0.61 0.61 87 998.4
20260509210003 9 194 14.5 24.1 0.61 0.61 0.61 88 998.3
20260509205424 9 191 16.1 27.4 0.61 0.61 0.61 88 998.4
20260509204524 8 189 17.7 30.6 0.61 0.61 0.61 88 998.3
20260509203603 8 200 16.1 30.6 0.58 0.58 0.58 90 998.2
20260509202703 9 256 20.9 32.2 0.53 0.53 0.53 87 998.8
20260509201803 11 210 19.3 33.8 0.30 0.30 0.30 84 998.8
20260509200903 11 204 22.5 35.4 0.23 0.23 0.23 82 997.7
20260509200003 13 192 24.1 46.7 0.00 0.00 0.00 68 997.4
20260509195403 15 198 27.4 59.5 0.00 0.00 0.00 63 996.8
20260509194503 15 189 29.0 56.3 0.00 0.00 0.00 61 996.7
20260509193603 15 184 20.9 51.5 0.00 0.00 0.00 58 996.2
20260509192703 16 186 20.9 49.9 0.00 0.00 0.00 58 996.4
20260509191803 16 178 20.9 49.9 0.00 0.00 0.00 57 996.7
20260509190924 16 185 29.0 54.7 0.00 0.00 0.00 57 996.7
20260509190003 16 186 30.6 51.5 0.00 0.00 0.00 55 996.8
20260509185403 16 188 27.4 45.1 0.00 0.00 0.00 54 996.8
20260509184524 16 186 30.6 51.5 0.00 0.00 0.00 54 996.8
20260509183624 16 181 25.7 51.5 0.00 0.00 0.00 53 997.0
20260509182703 16 180 22.5 37.0 0.00 0.00 0.00 54 997.0
20260509181803 16 180 20.9 40.2 0.00 0.00 0.00 56 996.9
20260509180903 15 177 19.3 40.2 0.00 0.00 0.00 56 997.0
20260509180003 15 173 20.9 37.0 0.00 0.00 0.00 56 997.4
20260509175424 15 182 22.5 38.6 0.00 0.00 0.00 56 997.3
20260509174503 14 189 25.7 43.5 0.00 0.00 0.00 60 997.8
20260509173624 15 181 24.1 45.1 0.00 0.00 0.00 56 998.2
20260509172703 15 175 20.9 46.7 0.00 0.00 0.00 56 997.9
20260509171803 15 174 20.9 45.1 0.00 0.00 0.00 59 998.0
20260509170903 15 185 19.3 37.0 0.00 0.00 0.00 58 998.3
20260509170024 15 178 17.7 32.2 0.00 0.00 0.00 58 998.5
20260509165403 15 173 17.7 37.0 0.00 0.00 0.00 60 998.4